Owatonna, MN

5:00 AM CST on February 24, 2017 (GMT -0600)
Owatonna Degner Regional

Weather History for KOWA - February, 2013

Change the Weather History Date:

Wednesday, February 6, 2013

  Actual Average Record
Temperature  
Mean Temperature 22 °F -  
Max Temperature 37 °F 24 °F 73 °F (1999)
Min Temperature 6 °F 4 °F -20 °F (1978)
Degree Days  
Heating Degree Days 44    
Moisture  
Dew Point 17 °F    
Average Humidity 70    
Maximum Humidity 86    
Minimum Humidity 56    
Precipitation  
Precipitation 0.00 in - - ()
Sea Level Pressure  
Sea Level Pressure 29.97 in    
Wind  
Wind Speed 7 mph (SSE)    
Max Wind Speed 22 mph    
Max Gust Speed 28 mph    
Visibility 8 miles    
Events Snow    
Averages and records for this station are not official NWS values.
T = Trace of Precipitation, MM = Missing Value Source: NWS Daily Summary

Daily Weather History Graph

Daily Weather History Graph

Search for Another Location

Airport or City:

Trip Planner

Search our weather history database for the weather conditions in past years. The results will help you decide how hot, cold, wet, or windy it might be!

Date:

Astronomy

Feb. 06, 2013 Rise Set
Actual Time 7:24 AM CST 5:30 PM CST
Civil Twilight 6:54 AM CST 6:00 PM CST
Nautical Twilight 6:19 AM CST 6:35 PM CST
Astronomical Twilight 5:46 AM CST 7:08 PM CST
Moon 4:12 AM CST (2/6) 1:45 PM CST (2/6)
Length of Visible Light 11h 06m
Length of Day
10h 06m
Waning Crescent, 17% of the Moon is Illuminated
Feb 6
Waning Crescent
Feb 10
New
Feb 17
First Quarter
Feb 25
Full
Mar 4
Last Quarter

Hourly Weather History & Observations

Time (CST) Temp. Windchill Dew Point Humidity Pressure Visibility Wind Dir Wind Speed Gust Speed Precip Events Conditions
12:14 AM 8.6 °F 0.1 °F 1.4 °F 73% 30.06 in 10.0 mi SW 4.6 mph - N/A   Clear
12:33 AM 8.6 °F -2.6 °F 1.4 °F 73% 30.07 in 10.0 mi SW 6.9 mph - N/A   Clear
1:14 AM 6.8 °F -0.1 °F -0.4 °F 72% 30.06 in 10.0 mi SW 3.5 mph - N/A   Clear
1:34 AM 8.6 °F -2.6 °F 1.4 °F 73% 30.06 in 10.0 mi SSW 6.9 mph - N/A   Clear
1:54 AM 10.4 °F 4.0 °F 3.2 °F 73% 30.07 in 10.0 mi South 3.5 mph - N/A   Clear
2:13 AM 10.4 °F 4.0 °F 3.2 °F 73% 30.07 in 10.0 mi South 3.5 mph - N/A   Clear
2:34 AM 10.4 °F 4.0 °F 3.2 °F 73% 30.07 in 7.0 mi South 3.5 mph - N/A   Clear
2:53 AM 6.8 °F - -0.4 °F 72% 30.07 in 0.2 mi Calm Calm - N/A Snow Light Snow
3:14 AM 6.8 °F - -0.4 °F 72% 30.06 in 0.2 mi Calm Calm - N/A   Haze
3:34 AM 6.8 °F - -0.4 °F 72% 30.05 in 0.2 mi Calm Calm - N/A Snow Light Snow
3:53 AM 6.8 °F - -0.4 °F 72% 30.04 in 0.2 mi Calm Calm - N/A   Haze
4:13 AM 8.6 °F - 1.4 °F 73% 30.04 in 0.2 mi Calm Calm - N/A   Haze
4:33 AM 8.6 °F - 1.4 °F 73% 30.05 in 0.5 mi Calm Calm - N/A   Haze
4:53 AM 10.4 °F 0.8 °F 3.2 °F 73% 30.04 in 4.0 mi SSE 5.8 mph - N/A Snow Light Snow
5:13 AM 12.2 °F 2.9 °F 5.0 °F 73% 30.05 in 1.5 mi SSE 5.8 mph - N/A Snow Light Snow
5:34 AM 12.2 °F 2.9 °F 6.8 °F 79% 30.06 in 3.0 mi SSW 5.8 mph - N/A Snow Light Snow
5:54 AM 14.0 °F 6.5 °F 8.6 °F 79% 30.07 in 3.0 mi South 4.6 mph - N/A   Haze
6:13 AM 15.8 °F - 8.6 °F 73% 30.06 in 5.0 mi Calm Calm - N/A   Haze
6:33 AM 15.8 °F 10.2 °F 10.4 °F 79% 30.04 in 7.0 mi ESE 3.5 mph - N/A   Scattered Clouds
6:54 AM 17.6 °F - 10.4 °F 73% 30.04 in 7.0 mi Calm Calm - N/A   Mostly Cloudy
7:13 AM 17.6 °F 10.7 °F 10.4 °F 73% 30.03 in 7.0 mi SE 4.6 mph - N/A   Mostly Cloudy
7:33 AM 17.6 °F 10.7 °F 12.2 °F 79% 30.02 in 7.0 mi SE 4.6 mph - N/A   Scattered Clouds
7:53 AM 17.6 °F 8.2 °F 12.2 °F 79% 30.02 in 7.0 mi SE 6.9 mph - N/A   Mostly Cloudy
8:13 AM 19.4 °F 14.3 °F 12.2 °F 74% 30.05 in 7.0 mi South 3.5 mph - N/A   Overcast
8:34 AM 19.4 °F 9.5 °F 14.0 °F 80% 30.05 in 7.0 mi SSE 8.1 mph - N/A   Mostly Cloudy
8:54 AM 21.2 °F 11.7 °F 15.8 °F 80% 30.03 in 7.0 mi SE 8.1 mph - N/A   Clear
9:14 AM 21.2 °F 10.9 °F 15.8 °F 80% 30.03 in 7.0 mi SE 9.2 mph - N/A   Clear
9:33 AM 21.2 °F 11.7 °F 17.6 °F 86% 30.01 in 7.0 mi SE 8.1 mph - N/A   Scattered Clouds
9:53 AM 23.0 °F 14.7 °F 17.6 °F 80% 30.02 in 7.0 mi SE 6.9 mph - N/A   Scattered Clouds
10:14 AM 24.8 °F 16.9 °F 17.6 °F 74% 30.02 in 7.0 mi SE 6.9 mph - N/A   Mostly Cloudy
10:34 AM 26.6 °F 16.2 °F 19.4 °F 74% 30.01 in 7.0 mi SE 11.5 mph - N/A   Scattered Clouds
10:54 AM 26.6 °F 16.8 °F 19.4 °F 74% 30.00 in 7.0 mi SE 10.4 mph - N/A   Clear
11:14 AM 28.4 °F 18.5 °F 19.4 °F 69% 30.01 in 10.0 mi SE 11.5 mph - N/A   Clear
11:34 AM 30.2 °F 21.3 °F 17.6 °F 60% 29.99 in 10.0 mi SE 10.4 mph - N/A   Scattered Clouds
11:53 AM 30.2 °F 20.2 °F 17.6 °F 60% 29.98 in 10.0 mi SE 12.7 mph - N/A   Scattered Clouds
12:13 PM 30.2 °F 18.5 °F 19.4 °F 64% 29.95 in 10.0 mi SE 17.3 mph 25.3 mph N/A   Scattered Clouds
12:33 PM 32.0 °F 20.8 °F 19.4 °F 60% 29.93 in 10.0 mi SE 17.3 mph 25.3 mph N/A   Clear
12:54 PM 33.8 °F 22.8 °F 19.4 °F 56% 29.92 in 10.0 mi SSE 18.4 mph - N/A   Clear
1:14 PM 33.8 °F 21.9 °F 21.2 °F 60% 29.90 in 7.0 mi SSE 21.9 mph 25.3 mph N/A   Scattered Clouds
1:33 PM 33.8 °F 22.2 °F 21.2 °F 60% 29.89 in 10.0 mi SE 20.7 mph 26.5 mph N/A   Scattered Clouds
1:53 PM 35.6 °F 24.8 °F 21.2 °F 56% 29.87 in 10.0 mi SE 19.6 mph 27.6 mph N/A   Scattered Clouds
2:13 PM 35.6 °F 24.8 °F 21.2 °F 56% 29.86 in 10.0 mi SE 19.6 mph 26.5 mph N/A   Clear
2:34 PM 35.6 °F 28.0 °F 23.0 °F 60% 29.88 in 10.0 mi SSE 10.4 mph 20.7 mph N/A   Clear
2:54 PM 35.6 °F 28.0 °F 23.0 °F 60% 29.90 in 10.0 mi South 10.4 mph - N/A   Clear
3:14 PM 35.6 °F 27.5 °F 24.8 °F 65% 29.90 in 10.0 mi South 11.5 mph 17.3 mph N/A   Clear
3:33 PM 35.6 °F 27.5 °F 24.8 °F 65% 29.90 in 10.0 mi South 11.5 mph - N/A   Clear
3:54 PM 35.6 °F 28.6 °F 24.8 °F 65% 29.90 in 10.0 mi SSE 9.2 mph - N/A   Clear
4:14 PM 37.4 °F 29.8 °F 26.6 °F 65% 29.89 in 10.0 mi SSE 11.5 mph - N/A   Clear
4:34 PM 37.4 °F 30.8 °F 26.6 °F 65% 29.89 in 10.0 mi SE 9.2 mph - N/A   Clear
4:54 PM 37.4 °F 30.3 °F 26.6 °F 65% 29.88 in 10.0 mi SSE 10.4 mph - N/A   Clear
5:14 PM 37.4 °F 30.3 °F 26.6 °F 65% 29.89 in 10.0 mi SE 10.4 mph - N/A   Clear
5:34 PM 37.4 °F 30.8 °F 26.6 °F 65% 29.89 in 10.0 mi SE 9.2 mph - N/A   Clear
5:53 PM 37.4 °F 30.3 °F 26.6 °F 65% 29.89 in 10.0 mi SE 10.4 mph - N/A   Clear
6:14 PM 37.4 °F 30.3 °F 28.4 °F 70% 29.89 in 10.0 mi SE 10.4 mph - N/A   Clear
6:34 PM 37.4 °F 29.8 °F 28.4 °F 70% 29.89 in 10.0 mi SSE 11.5 mph - N/A   Clear
7:14 PM 37.4 °F 29.8 °F 28.4 °F 70% 29.90 in 10.0 mi SSE 11.5 mph - N/A   Clear
7:34 PM 37.4 °F 28.9 °F 28.4 °F 70% 29.90 in 10.0 mi SSE 13.8 mph - N/A   Clear
7:54 PM 37.4 °F 29.3 °F 28.4 °F 70% 29.90 in 10.0 mi SSE 12.7 mph - N/A   Clear
8:14 PM 37.4 °F 29.3 °F 28.4 °F 70% 29.90 in 10.0 mi SSE 12.7 mph - N/A   Clear
8:34 PM 37.4 °F 29.3 °F 28.4 °F 70% 29.90 in 10.0 mi SSE 12.7 mph - N/A   Clear
8:54 PM 37.4 °F 29.3 °F 28.4 °F 70% 29.91 in 10.0 mi SSE 12.7 mph - N/A   Clear
9:14 PM 37.4 °F 29.8 °F 28.4 °F 70% 29.91 in 10.0 mi SSE 11.5 mph - N/A   Clear
9:33 PM 37.4 °F 30.3 °F 28.4 °F 70% 29.91 in 10.0 mi SSE 10.4 mph - N/A   Clear
9:54 PM 37.4 °F 29.3 °F 28.4 °F 70% 29.91 in 7.0 mi SSE 12.7 mph - N/A   Clear
10:13 PM 37.4 °F 29.8 °F 28.4 °F 70% 29.91 in 7.0 mi SSE 11.5 mph - N/A   Clear
10:34 PM 37.4 °F 29.8 °F 30.2 °F 75% 29.91 in 7.0 mi SSE 11.5 mph - N/A   Clear
10:54 PM 37.4 °F 29.8 °F 30.2 °F 75% 29.91 in 7.0 mi SSE 11.5 mph - N/A   Mostly Cloudy
11:14 PM 37.4 °F 30.3 °F 30.2 °F 75% 29.92 in 10.0 mi SSE 10.4 mph - N/A   Overcast
11:34 PM 35.6 °F 28.6 °F 28.4 °F 75% 29.92 in 7.0 mi SSE 9.2 mph - N/A   Scattered Clouds
11:54 PM 35.6 °F 29.2 °F 28.4 °F 75% 29.91 in 7.0 mi SSE 8.1 mph - N/A   Scattered Clouds